カタログに戻る

COSMOS 1761

運用中軍事HEO
NORAD 16849·PAYLOAD·🇷🇺 Russia

打ち上げ Jul 5, 1986 から Plesetsk Cosmodrome

Loading…

次のパス (今後24時間)

TLE

最新Source: Space-Track

元期: Sep 14, 2026, 15:29 UTC

1 16849U 86050A   26257.64530133 -.00000288  00000-0  00000-0 0  9993
2 16849  70.6994  40.0485 5636928   1.0570 177.8384  2.00324570294385

AllMySatでCOSMOS 1761をリアルタイム追跡

Download on the App Store